Location: Burbank
(38.7788°N, 114.0429°W)
Time: 20:45:11
(UTC+00:00)

S-56A Canister/Altair - Pass Details

Date: 12 May 2026
Orbit: 632 x 2484 km, 38.9° (Epoch: 8 June)

Event Time Altitude Azimuth Distance (km) Brightness Sun altitude
Rises 12:12:58 0° 270° (W) 3,962 10.6 -3.2°
Reaches altitude 10° 12:16:48 10° 249° (WSW) 3,327 10.1 -2.6°
Maximum altitude 12:21:27 16° 216° (SW) 3,271 10.2 -1.7°
Drops below altitude 10° 12:27:03 10° 184° (S) 4,141 11.0 -0.7°
Sets 12:32:54 0° 166° (SSE) 5,522 11.8 0.3°
